• In Portugal
  • List of Countries
  • For 7 days
  • Water Temperature
  • Satellite Maps
  • Weather Map
  • Weather Widgets
  • user-avatar
    Login

    Hourly Weather Tiraspol

    Today, 17 December, Sunday

    Time Temperature Precipitation Wind Pressure Humidity
    00:00 +8°C° 0.2 mm 4 mps 753 mmHg 76%
    01:00 +7°C° 0.2 mm 4 mps 754 mmHg 76%
    02:00 +8°C° 0 mm 3 mps 754 mmHg 78%
    03:00 +6°C° 0.4 mm 4 mps 754 mmHg 78%
    04:00 +6°C° 0.4 mm 5 mps 755 mmHg 77%
    05:00 +4°C° 0.4 mm 6 mps 755 mmHg 77%
    06:00 +5°C° 0.5 mm 5 mps 755 mmHg 77%
    07:00 +3°C° 0.5 mm 5 mps 756 mmHg 77%
    08:00 +3°C° 0 mm 5 mps 756 mmHg 75%
    09:00 +3°C° 0.1 mm 5 mps 757 mmHg 73%
    10:00 +3°C° 0.1 mm 5 mps 757 mmHg 72%
    11:00 +5°C° 0.1 mm 5 mps 757 mmHg 70%
    12:00 +5°C° 0.1 mm 5 mps 757 mmHg 70%
    13:00 +5°C° 0.1 mm 5 mps 756 mmHg 70%
    14:00 +4°C° 0.1 mm 6 mps 756 mmHg 70%
    15:00 +4°C° 0.2 mm 6 mps 756 mmHg 72%
    16:00 +3°C° 0.2 mm 6 mps 756 mmHg 74%
    17:00 +3°C° 0.2 mm 6 mps 756 mmHg 75%
    18:00 +3°C° 0.2 mm 6 mps 756 mmHg 76%
    19:00 +3°C° 0.2 mm 7 mps 756 mmHg 77%
    20:00 +2°C° 0.2 mm 7 mps 756 mmHg 78%
    21:00 +2°C° 0.4 mm 7 mps 756 mmHg 79%
    22:00 +2°C° 0.4 mm 7 mps 756 mmHg 80%
    23:00 +2°C° 0.4 mm 7 mps 755 mmHg 81%

    Tomorrow, 18 December, Monday

    Time Temperature Precipitation Wind Pressure Humidity
    00:00 0°C° 0.4 mm 7 mps 756 mmHg 82%
    01:00 0°C° 0.4 mm 7 mps 756 mmHg 82%
    02:00 0°C° 0.4 mm 8 mps 756 mmHg 83%
    03:00 -1°C° 0.8 mm 7 mps 756 mmHg 85%
    04:00 -1°C° 0.8 mm 7 mps 756 mmHg 87%
    05:00 -2°C° 0.8 mm 7 mps 756 mmHg 88%
    06:00 -2°C° 0.4 mm 7 mps 757 mmHg 88%
    07:00 -2°C° 0.4 mm 7 mps 757 mmHg 88%
    08:00 -2°C° 0.4 mm 7 mps 757 mmHg 87%
    09:00 -2°C° 0.1 mm 7 mps 758 mmHg 87%
    10:00 -2°C° 0.1 mm 7 mps 758 mmHg 86%
    11:00 -2°C° 0.1 mm 7 mps 759 mmHg 85%
    12:00 -2°C° 0 mm 6 mps 759 mmHg 84%
    13:00 -2°C° 0 mm 6 mps 759 mmHg 83%
    14:00 -1°C° 0 mm 6 mps 759 mmHg 83%
    15:00 -2°C° 0 mm 6 mps 760 mmHg 83%
    16:00 -1°C° 0 mm 5 mps 760 mmHg 83%
    17:00 -1°C° 0 mm 4 mps 760 mmHg 83%
    18:00 -1°C° 0 mm 4 mps 760 mmHg 83%
    19:00 -2°C° 0 mm 4 mps 761 mmHg 84%
    20:00 -2°C° 0 mm 4 mps 761 mmHg 84%
    21:00 -2°C° 0 mm 4 mps 761 mmHg 84%
    22:00 -3°C° 0 mm 4 mps 762 mmHg 84%
    23:00 -3°C° 0 mm 4 mps 762 mmHg 84%

    Day after tomorrow, 19 December, Tuesday

    Time Temperature Precipitation Wind Pressure Humidity
    00:00 -3°C° 0 mm 4 mps 762 mmHg 84%
    01:00 -3°C° 0 mm 4 mps 762 mmHg 84%
    02:00 -3°C° 0 mm 4 mps 763 mmHg 84%
    03:00 -3°C° 0 mm 4 mps 763 mmHg 84%
    04:00 -3°C° 0 mm 4 mps 763 mmHg 84%
    05:00 -3°C° 0 mm 4 mps 763 mmHg 84%
    06:00 -3°C° 0 mm 4 mps 763 mmHg 83%
    07:00 -4°C° 0 mm 4 mps 764 mmHg 83%
    08:00 -4°C° 0 mm 4 mps 764 mmHg 83%
    09:00 -3°C° 0 mm 4 mps 764 mmHg 80%
    10:00 -2°C° 0 mm 4 mps 765 mmHg 77%
    11:00 -1°C° 0 mm 5 mps 765 mmHg 73%
    12:00 -1°C° 0 mm 5 mps 765 mmHg 73%
    13:00 -1°C° 0 mm 4 mps 765 mmHg 73%
    14:00 -1°C° 0 mm 4 mps 765 mmHg 73%
    15:00 -1°C° 0 mm 4 mps 765 mmHg 76%
    16:00 -1°C° 0 mm 3 mps 766 mmHg 79%
    17:00 -2°C° 0 mm 2 mps 766 mmHg 82%
    18:00 -2°C° 0 mm 2 mps 766 mmHg 82%
    19:00 -2°C° 0 mm 3 mps 766 mmHg 81%
    20:00 -2°C° 0 mm 3 mps 767 mmHg 81%
    21:00 -2°C° 0 mm 3 mps 767 mmHg 80%
    22:00 -2°C° 0 mm 3 mps 767 mmHg 80%
    23:00 -2°C° 0 mm 3 mps 768 mmHg 80%

    20 December, Wednesday

    Time Temperature Precipitation Wind Pressure Humidity
    00:00 -2°C° 0 mm 3 mps 768 mmHg 79%
    01:00 -4°C° 0 mm 3 mps 768 mmHg 78%
    02:00 -4°C° 0 mm 4 mps 768 mmHg 78%
    03:00 -4°C° 0 mm 3 mps 768 mmHg 78%
    04:00 -4°C° 0 mm 3 mps 768 mmHg 79%
    05:00 -4°C° 0 mm 3 mps 768 mmHg 79%
    06:00 -4°C° 0 mm 3 mps 768 mmHg 79%
    07:00 -4°C° 0 mm 2 mps 768 mmHg 79%
    08:00 -4°C° 0 mm 2 mps 768 mmHg 79%
    09:00 -3°C° 0 mm 2 mps 769 mmHg 75%
    10:00 -2°C° 0 mm 3 mps 769 mmHg 70%
    11:00 -2°C° 0 mm 4 mps 769 mmHg 66%
    12:00 -2°C° 0 mm 4 mps 769 mmHg 66%
    13:00 -2°C° 0 mm 4 mps 768 mmHg 65%
    14:00 -2°C° 0 mm 4 mps 768 mmHg 65%
    15:00 -2°C° 0 mm 4 mps 768 mmHg 67%
    16:00 -2°C° 0 mm 3 mps 768 mmHg 69%
    17:00 -2°C° 0 mm 3 mps 768 mmHg 71%
    18:00 -2°C° 0 mm 3 mps 769 mmHg 71%
    19:00 -2°C° 0 mm 2 mps 769 mmHg 72%
    20:00 -2°C° 0 mm 2 mps 769 mmHg 72%
    21:00 -2°C° 0 mm 2 mps 769 mmHg 72%
    22:00 -2°C° 0 mm 2 mps 769 mmHg 72%
    23:00 -2°C° 0 mm 2 mps 769 mmHg 73%

    21 December, Thursday

    Time Temperature Precipitation Wind Pressure Humidity
    00:00 -2°C° 0 mm 2 mps 769 mmHg 73%
    01:00 -2°C° 0 mm 2 mps 769 mmHg 74%
    02:00 -2°C° 0 mm 2 mps 769 mmHg 75%
    03:00 -3°C° 0 mm 2 mps 769 mmHg 76%
    04:00 -3°C° 0 mm 2 mps 768 mmHg 77%
    05:00 -3°C° 0 mm 2 mps 768 mmHg 79%
    06:00 -3°C° 0 mm 2 mps 768 mmHg 79%
    07:00 -3°C° 0 mm 2 mps 768 mmHg 79%
    08:00 -4°C° 0 mm 2 mps 768 mmHg 80%
    09:00 -3°C° 0 mm 2 mps 768 mmHg 75%
    10:00 -2°C° 0 mm 2 mps 768 mmHg 70%
    11:00 -1°C° 0 mm 3 mps 768 mmHg 65%
    12:00 -1°C° 0 mm 3 mps 767 mmHg 64%
    13:00 0°C° 0 mm 3 mps 766 mmHg 62%
    14:00 0°C° 0 mm 3 mps 766 mmHg 60%
    15:00 -1°C° 0 mm 3 mps 766 mmHg 64%
    16:00 -2°C° 0 mm 2 mps 765 mmHg 67%
    17:00 -2°C° 0 mm 2 mps 765 mmHg 71%
    18:00 -2°C° 0 mm 2 mps 765 mmHg 72%
    19:00 -3°C° 0 mm 2 mps 765 mmHg 72%
    20:00 -3°C° 0 mm 2 mps 764 mmHg 73%
    21:00 -3°C° 0 mm 2 mps 764 mmHg 72%
    22:00 -3°C° 0 mm 2 mps 764 mmHg 72%
    23:00 -3°C° 0 mm 2 mps 763 mmHg 72%

    22 December, Friday

    Time Temperature Precipitation Wind Pressure Humidity
    00:00 -3°C° 0 mm 2 mps 763 mmHg 72%
    01:00 -3°C° 0 mm 2 mps 762 mmHg 73%
    02:00 -3°C° 0 mm 2 mps 762 mmHg 74%
    03:00 -3°C° 0 mm 2 mps 762 mmHg 76%
    04:00 -4°C° 0 mm 2 mps 761 mmHg 77%
    05:00 -4°C° 0 mm 2 mps 761 mmHg 79%
    06:00 -4°C° 0 mm 2 mps 761 mmHg 80%
    07:00 -4°C° 0 mm 2 mps 761 mmHg 80%
    08:00 -4°C° 0 mm 2 mps 761 mmHg 81%
    09:00 -3°C° 0 mm 2 mps 760 mmHg 76%
    10:00 -2°C° 0 mm 2 mps 760 mmHg 71%
    11:00 -1°C° 0 mm 2 mps 760 mmHg 66%
    12:00 -1°C° 0 mm 3 mps 760 mmHg 65%
    13:00 0°C° 0 mm 3 mps 760 mmHg 65%
    14:00 0°C° 0 mm 3 mps 759 mmHg 64%
    15:00 -1°C° 0 mm 3 mps 759 mmHg 69%
    16:00 -1°C° 0 mm 2 mps 759 mmHg 73%
    17:00 -2°C° 0 mm 2 mps 759 mmHg 77%
    18:00 -2°C° 0 mm 2 mps 759 mmHg 79%
    19:00 -2°C° 0 mm 2 mps 759 mmHg 81%
    20:00 -2°C° 0 mm 2 mps 759 mmHg 83%
    21:00 -2°C° 0 mm 2 mps 759 mmHg 83%
    22:00 -2°C° 0 mm 2 mps 759 mmHg 84%
    23:00 -2°C° 0 mm 3 mps 759 mmHg 84%
    Show more